AAY1584 KLAS-KHOU

Flight info

Callsign AAY1584
Flight time 2h 14m
Altitude 35000
Route NIITZ4 SSKEE ZUN CNX KA21W KF15Y DILLO KIDDZ5
Aircraft A320/M-SDE3FGHIRWY/LB1

Departure

Time 2026-05-04 01:58
Airport Harry Reid International Airport (KLAS)

Arrival

Time 2026-05-04 04:12
Airport William P. Hobby Airport (KHOU)
Time Latitude Longitude Altitude Speed Heading
2026-05-04 01:42 36.08638 -115.15365 2188 ft 0 kts 97°
2026-05-04 01:46 36.08638 -115.15370 2188 ft 2 kts 97°
2026-05-04 01:46 36.08640 -115.15390 2189 ft 2 kts 97°
2026-05-04 01:47 36.08642 -115.15409 2187 ft 2 kts 97°
2026-05-04 01:47 36.08645 -115.15429 2187 ft 2 kts 97°
2026-05-04 01:47 36.08647 -115.15449 2188 ft 2 kts 110°
2026-05-04 01:47 36.08655 -115.15466 2190 ft 2 kts 151°
2026-05-04 01:48 36.08661 -115.15470 2189 ft 0 kts 169°
2026-05-04 01:49 36.08660 -115.15470 2190 ft 1 kts 171°
2026-05-04 01:49 36.08643 -115.15481 2190 ft 5 kts 223°
2026-05-04 01:49 36.08623 -115.15539 2188 ft 9 kts 248°
2026-05-04 01:49 36.08576 -115.15593 2192 ft 10 kts 208°
2026-05-04 01:50 36.08534 -115.15619 2190 ft 1 kts 206°
2026-05-04 01:50 36.08530 -115.15621 2188 ft 1 kts 206°
2026-05-04 01:50 36.08526 -115.15624 2188 ft 0 kts 206°
2026-05-04 01:51 36.08521 -115.15627 2188 ft 3 kts 209°
2026-05-04 01:52 36.08504 -115.15678 2191 ft 10 kts 283°
2026-05-04 01:52 36.08581 -115.15741 2188 ft 15 kts 335°
2026-05-04 01:52 36.08667 -115.15788 2190 ft 12 kts 342°
2026-05-04 01:52 36.08744 -115.15782 2190 ft 10 kts 14°
2026-05-04 01:53 36.08806 -115.15741 2189 ft 13 kts 33°
2026-05-04 01:53 36.08926 -115.15667 2190 ft 24 kts 24°
2026-05-04 01:53 36.09067 -115.15585 2192 ft 21 kts 26°
2026-05-04 01:53 36.09194 -115.15511 2189 ft 19 kts 25°
2026-05-04 01:54 36.09305 -115.15448 2190 ft 17 kts 25°
2026-05-04 01:54 36.09404 -115.15391 2188 ft 15 kts 25°
2026-05-04 01:54 36.09491 -115.15341 2188 ft 15 kts 25°
2026-05-04 01:54 36.09626 -115.15264 2189 ft 24 kts 25°
2026-05-04 01:55 36.09748 -115.15203 2188 ft 11 kts
2026-05-04 01:55 36.09799 -115.15245 2189 ft 8 kts 296°
2026-05-04 01:55 36.09820 -115.15305 2189 ft 8 kts 293°
2026-05-04 01:55 36.09835 -115.15356 2191 ft 5 kts 276°
2026-05-04 01:56 36.09821 -115.15376 2193 ft 3 kts 207°
2026-05-04 01:56 36.09820 -115.15376 2192 ft 0 kts 207°
2026-05-04 01:57 36.09819 -115.15377 2192 ft 1 kts 207°
2026-05-04 01:57 36.09695 -115.15450 2191 ft 53 kts 205°
2026-05-04 01:57 36.09147 -115.15763 2190 ft 117 kts 205°
2026-05-04 01:57 36.08267 -115.16264 2300 ft 157 kts 204°
2026-05-04 01:58 36.07301 -115.16827 3089 ft 154 kts 205°
2026-05-04 01:58 36.06337 -115.17402 3806 ft 154 kts 205°
2026-05-04 01:58 36.05353 -115.17985 4240 ft 163 kts 205°
2026-05-04 01:58 36.04257 -115.18631 4376 ft 185 kts 205°
2026-05-04 01:59 36.03019 -115.19362 4523 ft 210 kts 205°
2026-05-04 01:59 36.01627 -115.20186 4817 ft 234 kts 206°
2026-05-04 01:59 36.00086 -115.21049 5249 ft 249 kts 201°
2026-05-04 01:59 35.98442 -115.21805 5971 ft 254 kts 199°
2026-05-04 02:00 35.96709 -115.22152 6655 ft 261 kts 175°
2026-05-04 02:00 35.94906 -115.21760 7381 ft 265 kts 171°
2026-05-04 02:00 35.93095 -115.21223 8153 ft 270 kts 162°
2026-05-04 02:00 35.91445 -115.20055 8899 ft 279 kts 144°
2026-05-04 02:01 35.90148 -115.18214 9657 ft 290 kts 126°
2026-05-04 02:01 35.89125 -115.16090 10362 ft 295 kts 126°
2026-05-04 02:01 35.88058 -115.13809 10577 ft 320 kts 121°
2026-05-04 02:01 35.87224 -115.11133 10739 ft 348 kts 109°
2026-05-04 02:02 35.86821 -115.08085 10935 ft 372 kts 96°
2026-05-04 02:02 35.86925 -115.04843 11459 ft 383 kts 89°
2026-05-04 02:02 35.87126 -115.01552 12122 ft 386 kts 89°
2026-05-04 02:02 35.87312 -114.98227 12698 ft 391 kts 89°
2026-05-04 02:03 35.87487 -114.94896 13289 ft 396 kts 89°
2026-05-04 02:03 35.87663 -114.91481 13891 ft 399 kts 89°
2026-05-04 02:03 35.87842 -114.88047 14431 ft 403 kts 90°
2026-05-04 02:03 35.88026 -114.84579 14968 ft 406 kts 89°
2026-05-04 02:04 35.88210 -114.81086 15526 ft 409 kts 89°
2026-05-04 02:04 35.88396 -114.77567 16038 ft 413 kts 89°
2026-05-04 02:04 35.88586 -114.74021 16578 ft 415 kts 89°
2026-05-04 02:04 35.88778 -114.70456 17098 ft 418 kts 89°
2026-05-04 02:05 35.88971 -114.66863 17589 ft 421 kts 89°
2026-05-04 02:05 35.89162 -114.63250 18079 ft 424 kts 89°
2026-05-04 02:05 35.89349 -114.59641 18464 ft 429 kts 89°
2026-05-04 02:05 35.89537 -114.55944 18800 ft 433 kts 89°
2026-05-04 02:06 35.89715 -114.52201 19059 ft 438 kts 90°
2026-05-04 02:06 35.89806 -114.48428 19406 ft 442 kts 92°
2026-05-04 02:06 35.89808 -114.44614 19730 ft 447 kts 94°
2026-05-04 02:06 35.89755 -114.40765 20049 ft 452 kts 94°
2026-05-04 02:07 35.89685 -114.36912 20376 ft 457 kts 94°
2026-05-04 02:07 35.89619 -114.32966 20713 ft 462 kts 94°
2026-05-04 02:07 35.89567 -114.28969 21043 ft 467 kts 94°
2026-05-04 02:07 35.89531 -114.24942 21368 ft 472 kts 94°
2026-05-04 02:08 35.89507 -114.20910 21634 ft 477 kts 94°
2026-05-04 02:08 35.89488 -114.16798 21947 ft 481 kts 94°
2026-05-04 02:08 35.89467 -114.12643 22289 ft 486 kts 94°
2026-05-04 02:08 35.89442 -114.08434 22607 ft 491 kts 94°
2026-05-04 02:09 35.89411 -114.04195 22917 ft 494 kts 94°
2026-05-04 02:09 35.89374 -113.99941 23270 ft 497 kts 94°
2026-05-04 02:09 35.89336 -113.95713 23557 ft 501 kts 94°
2026-05-04 02:09 35.89295 -113.91400 23831 ft 504 kts 94°
2026-05-04 02:10 35.89256 -113.87051 24113 ft 507 kts 94°
2026-05-04 02:10 35.89215 -113.82685 24393 ft 510 kts 94°
2026-05-04 02:10 35.89168 -113.78290 24669 ft 513 kts 94°
2026-05-04 02:10 35.89119 -113.73872 24939 ft 515 kts 94°
2026-05-04 02:11 35.89071 -113.69451 25264 ft 516 kts 94°
2026-05-04 02:11 35.89023 -113.65073 25598 ft 517 kts 94°
2026-05-04 02:11 35.88971 -113.60623 25878 ft 519 kts 94°
2026-05-04 02:11 35.88911 -113.56141 26114 ft 523 kts 94°
2026-05-04 02:12 35.88631 -113.51667 26331 ft 522 kts 103°
2026-05-04 02:12 35.88007 -113.47242 26622 ft 523 kts 104°
2026-05-04 02:12 35.87367 -113.42809 26859 ft 526 kts 104°
2026-05-04 02:12 35.86734 -113.38417 27106 ft 528 kts 103°
2026-05-04 02:13 35.86092 -113.33950 27434 ft 529 kts 104°
2026-05-04 02:13 35.85446 -113.29487 27925 ft 527 kts 104°
2026-05-04 02:13 35.84798 -113.25024 28166 ft 530 kts 104°
2026-05-04 02:13 35.84147 -113.20542 28461 ft 532 kts 104°
2026-05-04 02:14 35.83495 -113.16039 28765 ft 533 kts 104°
2026-05-04 02:14 35.82841 -113.11531 29079 ft 533 kts 104°
2026-05-04 02:14 35.82193 -113.07082 29415 ft 534 kts 103°
2026-05-04 02:14 35.81536 -113.02578 29756 ft 534 kts 103°
2026-05-04 02:15 35.80878 -112.98071 30045 ft 534 kts 103°
2026-05-04 02:15 35.80213 -112.93556 30326 ft 535 kts 103°
2026-05-04 02:15 35.79545 -112.89050 30611 ft 534 kts 104°
2026-05-04 02:15 35.78872 -112.84542 30913 ft 534 kts 104°
2026-05-04 02:16 35.78197 -112.80036 31221 ft 533 kts 104°
2026-05-04 02:16 35.77532 -112.75605 31496 ft 533 kts 104°
2026-05-04 02:16 35.76858 -112.71113 31777 ft 533 kts 104°
2026-05-04 02:16 35.76185 -112.66614 32061 ft 533 kts 103°
2026-05-04 02:17 35.75515 -112.62123 32356 ft 533 kts 103°
2026-05-04 02:17 35.74846 -112.57628 32626 ft 532 kts 103°
2026-05-04 02:17 35.74177 -112.53134 32908 ft 532 kts 103°
2026-05-04 02:17 35.73505 -112.48644 33204 ft 532 kts 104°
2026-05-04 02:18 35.72828 -112.44166 33522 ft 532 kts 103°
2026-05-04 02:18 35.72147 -112.39690 33846 ft 532 kts 103°
2026-05-04 02:18 35.71468 -112.35225 34139 ft 531 kts 103°
2026-05-04 02:18 35.70788 -112.30754 34410 ft 531 kts 104°
2026-05-04 02:19 35.70115 -112.26337 34655 ft 531 kts 104°
2026-05-04 02:19 35.69430 -112.21853 34895 ft 531 kts 104°
2026-05-04 02:19 35.68743 -112.17375 35055 ft 532 kts 104°
2026-05-04 02:19 35.68051 -112.12883 35077 ft 536 kts 104°
2026-05-04 02:20 35.66660 -112.03891 35072 ft 534 kts 104°
2026-05-04 02:20 35.65271 -111.94970 35034 ft 534 kts 104°
2026-05-04 02:21 35.63866 -111.85950 34976 ft 538 kts 104°
2026-05-04 02:21 35.62056 -111.77100 34893 ft 535 kts 110°
2026-05-04 02:22 35.59968 -111.68322 34893 ft 534 kts 110°
2026-05-04 02:22 35.57868 -111.59553 34889 ft 534 kts 110°
2026-05-04 02:23 35.55776 -111.50846 34865 ft 534 kts 110°
2026-05-04 02:23 35.53669 -111.42081 34879 ft 534 kts 110°
2026-05-04 02:24 35.51914 -111.34791 34814 ft 534 kts 110°
2026-05-04 02:24 35.49450 -111.24623 34812 ft 535 kts 110°
2026-05-04 02:25 35.47679 -111.17323 34815 ft 536 kts 110°
2026-05-04 02:25 35.45542 -111.08544 34824 ft 536 kts 110°
2026-05-04 02:26 35.43398 -110.99773 34818 ft 537 kts 110°
2026-05-04 02:26 35.41243 -110.91005 34816 ft 537 kts 110°
2026-05-04 02:27 35.39091 -110.82276 34814 ft 537 kts 110°
2026-05-04 02:27 35.36927 -110.73495 34808 ft 539 kts 110°
2026-05-04 02:28 35.34741 -110.64672 34811 ft 540 kts 110°
2026-05-04 02:28 35.32555 -110.55924 34822 ft 540 kts 110°
2026-05-04 02:29 35.30359 -110.47113 34833 ft 540 kts 110°
2026-05-04 02:29 35.28168 -110.38341 34841 ft 540 kts 110°
2026-05-04 02:30 35.25963 -110.29540 34844 ft 540 kts 110°
2026-05-04 02:30 35.23744 -110.20749 34820 ft 540 kts 111°
2026-05-04 02:31 35.21522 -110.11987 34815 ft 543 kts 110°
2026-05-04 02:31 35.19277 -110.03157 34833 ft 543 kts 110°
2026-05-04 02:32 35.17021 -109.94342 34840 ft 543 kts 110°
2026-05-04 02:32 35.15890 -109.89926 34941 ft 544 kts 110°
2026-05-04 02:32 35.14760 -109.85515 35208 ft 543 kts 110°
2026-05-04 02:33 35.13631 -109.81112 35441 ft 542 kts 110°
2026-05-04 02:33 35.12518 -109.76774 35677 ft 541 kts 110°
2026-05-04 02:33 35.11391 -109.72379 35945 ft 539 kts 110°
2026-05-04 02:33 35.10264 -109.67997 36117 ft 539 kts 110°
2026-05-04 02:34 35.09137 -109.63614 36235 ft 541 kts 110°
2026-05-04 02:34 35.08005 -109.59227 36366 ft 542 kts 111°
2026-05-04 02:34 35.06879 -109.54883 36491 ft 544 kts 111°
2026-05-04 02:34 35.05733 -109.50478 36632 ft 545 kts 111°
2026-05-04 02:35 35.04583 -109.46058 36797 ft 545 kts 111°
2026-05-04 02:35 35.03432 -109.41632 36866 ft 545 kts 110°
2026-05-04 02:35 35.01138 -109.32831 36870 ft 543 kts 110°
2026-05-04 02:36 34.98858 -109.24115 36867 ft 543 kts 110°
2026-05-04 02:36 34.96605 -109.15314 36868 ft 544 kts 105°
2026-05-04 02:37 34.95122 -109.06241 36881 ft 548 kts 102°
2026-05-04 02:37 34.93682 -108.97087 36901 ft 549 kts 102°
2026-05-04 02:38 34.92233 -108.87933 36906 ft 550 kts 102°
2026-05-04 02:38 34.90780 -108.78846 36918 ft 550 kts 102°
2026-05-04 02:39 34.89307 -108.69702 36945 ft 549 kts 102°
2026-05-04 02:39 34.87839 -108.60574 36942 ft 547 kts 102°
2026-05-04 02:40 34.86372 -108.51534 36948 ft 547 kts 102°
2026-05-04 02:40 34.84890 -108.42446 36968 ft 546 kts 102°
2026-05-04 02:41 34.83411 -108.33368 36915 ft 545 kts 102°
2026-05-04 02:41 34.81935 -108.24354 36903 ft 546 kts 102°
2026-05-04 02:42 34.80432 -108.15268 36909 ft 547 kts 102°
2026-05-04 02:42 34.78928 -108.06237 36914 ft 547 kts 103°
2026-05-04 02:43 34.77406 -107.97143 36920 ft 548 kts 103°
2026-05-04 02:43 34.75884 -107.88061 36923 ft 548 kts 102°
2026-05-04 02:44 34.74361 -107.78960 36930 ft 548 kts 103°
2026-05-04 02:44 34.72827 -107.69932 36957 ft 548 kts 103°
2026-05-04 02:45 34.71273 -107.60842 36948 ft 548 kts 103°
2026-05-04 02:45 34.69724 -107.51779 36925 ft 547 kts 103°
2026-05-04 02:46 34.68189 -107.42760 36914 ft 548 kts 103°
2026-05-04 02:46 34.66621 -107.33659 36928 ft 548 kts 103°
2026-05-04 02:47 34.65054 -107.24656 36903 ft 547 kts 103°
2026-05-04 02:47 34.63468 -107.15597 36893 ft 547 kts 103°
2026-05-04 02:48 34.61895 -107.06612 36902 ft 547 kts 103°
2026-05-04 02:48 34.60311 -106.97582 36894 ft 546 kts 103°
2026-05-04 02:49 34.58721 -106.88558 36901 ft 545 kts 103°
2026-05-04 02:49 34.57926 -106.84057 37090 ft 545 kts 103°
2026-05-04 02:49 34.57128 -106.79552 37050 ft 545 kts 104°
2026-05-04 02:50 34.55531 -106.70601 37025 ft 546 kts 104°
2026-05-04 02:50 34.53913 -106.61584 37006 ft 545 kts 103°
2026-05-04 02:51 34.52300 -106.52603 36983 ft 544 kts 104°
2026-05-04 02:51 34.50689 -106.43692 36967 ft 543 kts 104°
2026-05-04 02:52 34.49065 -106.34737 36973 ft 543 kts 104°
2026-05-04 02:52 34.47430 -106.25775 36989 ft 543 kts 103°
2026-05-04 02:53 34.45799 -106.16840 36999 ft 542 kts 103°
2026-05-04 02:53 34.44173 -106.07966 36999 ft 542 kts 104°
2026-05-04 02:54 34.42524 -105.99026 36977 ft 542 kts 104°
2026-05-04 02:54 34.40869 -105.90100 37002 ft 542 kts 104°
2026-05-04 02:55 34.38386 -105.76777 37006 ft 542 kts 104°
2026-05-04 02:56 34.36363 -105.68003 37010 ft 539 kts 115°
2026-05-04 02:56 34.32811 -105.60106 37008 ft 532 kts 126°
2026-05-04 02:57 34.28933 -105.52478 37006 ft 531 kts 126°
2026-05-04 02:57 34.25089 -105.44890 36954 ft 531 kts 126°
2026-05-04 02:58 34.21221 -105.37268 36954 ft 532 kts 126°
2026-05-04 02:58 34.17337 -105.29641 36935 ft 533 kts 126°
2026-05-04 02:59 34.13441 -105.22009 36951 ft 533 kts 126°
2026-05-04 02:59 34.09567 -105.14436 36940 ft 533 kts 126°
2026-05-04 03:00 34.05666 -105.06816 36928 ft 533 kts 126°
2026-05-04 03:00 34.01753 -104.99202 36894 ft 533 kts 126°
2026-05-04 03:01 33.97862 -104.91651 36909 ft 533 kts 126°
2026-05-04 03:01 33.93937 -104.84047 36914 ft 533 kts 126°
2026-05-04 03:02 33.90007 -104.76460 36914 ft 533 kts 126°
2026-05-04 03:02 33.86086 -104.68894 36911 ft 532 kts 126°
2026-05-04 03:03 33.82183 -104.61375 36868 ft 533 kts 126°
2026-05-04 03:03 33.78239 -104.53802 36876 ft 533 kts 126°
2026-05-04 03:04 33.74283 -104.46233 36869 ft 534 kts 126°
2026-05-04 03:04 33.70355 -104.38706 36875 ft 535 kts 126°
2026-05-04 03:05 33.66388 -104.31118 36872 ft 535 kts 127°
2026-05-04 03:05 33.62439 -104.23585 36842 ft 535 kts 126°
2026-05-04 03:06 33.58461 -104.16018 36897 ft 536 kts 127°
2026-05-04 03:06 33.54473 -104.08466 36895 ft 536 kts 127°
2026-05-04 03:07 33.50483 -104.00912 36910 ft 536 kts 127°
2026-05-04 03:07 33.46577 -103.93275 36913 ft 538 kts 124°
2026-05-04 03:08 33.42878 -103.85537 36905 ft 538 kts 123°
2026-05-04 03:08 33.39172 -103.77749 36930 ft 538 kts 124°
2026-05-04 03:09 33.35396 -103.70018 36931 ft 538 kts 124°
2026-05-04 03:09 33.31585 -103.62318 36945 ft 538 kts 124°
2026-05-04 03:10 33.27778 -103.54615 36943 ft 538 kts 124°
2026-05-04 03:10 33.23976 -103.46909 36964 ft 538 kts 124°
2026-05-04 03:11 33.20821 -103.40505 36930 ft 538 kts 124°
2026-05-04 03:11 33.17020 -103.32798 36939 ft 539 kts 124°
2026-05-04 03:12 33.13198 -103.25100 36946 ft 539 kts 124°
2026-05-04 03:12 33.09367 -103.17405 36963 ft 540 kts 124°
2026-05-04 03:13 33.05535 -103.09716 36977 ft 539 kts 124°
2026-05-04 03:13 33.01701 -103.02028 36969 ft 539 kts 124°
2026-05-04 03:14 32.97860 -102.94359 36933 ft 539 kts 124°
2026-05-04 03:14 32.94010 -102.86692 36959 ft 540 kts 124°
2026-05-04 03:15 32.90161 -102.79024 37000 ft 540 kts 124°
2026-05-04 03:15 32.86307 -102.71354 37059 ft 540 kts 124°
2026-05-04 03:16 32.82450 -102.63708 37084 ft 539 kts 124°
2026-05-04 03:16 32.78589 -102.56070 37093 ft 539 kts 124°
2026-05-04 03:17 32.74727 -102.48439 37080 ft 538 kts 124°
2026-05-04 03:17 32.70858 -102.40828 37051 ft 538 kts 125°
2026-05-04 03:18 32.66982 -102.33229 37016 ft 538 kts 125°
2026-05-04 03:18 32.63115 -102.25635 36981 ft 538 kts 125°
2026-05-04 03:19 32.59246 -102.18040 37003 ft 537 kts 125°
2026-05-04 03:19 32.55397 -102.10514 36957 ft 537 kts 126°
2026-05-04 03:20 32.51513 -102.02943 37000 ft 538 kts 126°
2026-05-04 03:20 32.47623 -101.95354 36996 ft 539 kts 125°
2026-05-04 03:21 32.43750 -101.87757 36986 ft 539 kts 125°
2026-05-04 03:21 32.39886 -101.80163 36973 ft 539 kts 125°
2026-05-04 03:22 32.36015 -101.72573 36977 ft 539 kts 125°
2026-05-04 03:22 32.32137 -101.64999 37039 ft 539 kts 125°
2026-05-04 03:23 32.28241 -101.57406 37057 ft 540 kts 126°
2026-05-04 03:23 32.24332 -101.49816 37058 ft 541 kts 126°
2026-05-04 03:24 32.20417 -101.42216 37063 ft 542 kts 126°
2026-05-04 03:24 32.16494 -101.34624 37046 ft 542 kts 126°
2026-05-04 03:25 32.12558 -101.27031 37041 ft 542 kts 126°
2026-05-04 03:25 32.08616 -101.19437 36967 ft 543 kts 125°
2026-05-04 03:26 32.04672 -101.11853 36974 ft 543 kts 125°
2026-05-04 03:26 32.00750 -101.04306 36992 ft 543 kts 125°
2026-05-04 03:27 31.96797 -100.96724 36998 ft 543 kts 125°
2026-05-04 03:27 31.92836 -100.89146 37014 ft 543 kts 125°
2026-05-04 03:28 31.88869 -100.81578 37015 ft 543 kts 125°
2026-05-04 03:28 31.84896 -100.74017 37003 ft 543 kts 125°
2026-05-04 03:29 31.80921 -100.66468 37017 ft 543 kts 125°
2026-05-04 03:29 31.76951 -100.58924 37022 ft 543 kts 125°
2026-05-04 03:30 31.72979 -100.51381 37035 ft 543 kts 125°
2026-05-04 03:30 31.68994 -100.43857 37035 ft 542 kts 125°
2026-05-04 03:31 31.64999 -100.36347 37018 ft 542 kts 125°
2026-05-04 03:31 31.61004 -100.28834 37031 ft 542 kts 125°
2026-05-04 03:32 31.57012 -100.21322 37041 ft 543 kts 125°
2026-05-04 03:32 31.53014 -100.13820 37044 ft 542 kts 125°
2026-05-04 03:33 31.49040 -100.06377 37048 ft 542 kts 125°
2026-05-04 03:33 31.45036 -99.98895 37054 ft 542 kts 125°
2026-05-04 03:34 31.41025 -99.91423 37009 ft 542 kts 125°
2026-05-04 03:34 31.37014 -99.83957 37028 ft 542 kts 125°
2026-05-04 03:35 31.32998 -99.76493 37040 ft 542 kts 125°
2026-05-04 03:35 31.28971 -99.69041 37040 ft 542 kts 125°
2026-05-04 03:36 31.24943 -99.61597 37049 ft 542 kts 125°
2026-05-04 03:36 31.20912 -99.54150 37049 ft 542 kts 125°
2026-05-04 03:37 31.16887 -99.46714 37023 ft 542 kts 125°
2026-05-04 03:37 31.12851 -99.39287 37045 ft 542 kts 125°
2026-05-04 03:38 31.08806 -99.31868 37105 ft 542 kts 125°
2026-05-04 03:38 31.04759 -99.24458 37099 ft 541 kts 125°
2026-05-04 03:39 31.00715 -99.17056 37091 ft 541 kts 125°
2026-05-04 03:39 30.96666 -99.09659 37086 ft 541 kts 125°
2026-05-04 03:40 30.92605 -99.02266 37053 ft 541 kts 125°
2026-05-04 03:40 30.88554 -98.94900 37089 ft 540 kts 125°
2026-05-04 03:41 30.84502 -98.87535 37120 ft 540 kts 125°
2026-05-04 03:41 30.80755 -98.79961 37134 ft 542 kts 113°
2026-05-04 03:42 30.78722 -98.71622 37146 ft 539 kts 96°
2026-05-04 03:42 30.77641 -98.62986 37134 ft 540 kts 96°
2026-05-04 03:43 30.76521 -98.54355 37128 ft 540 kts 96°
2026-05-04 03:43 30.75388 -98.45711 37119 ft 541 kts 96°
2026-05-04 03:44 30.74259 -98.37064 37138 ft 541 kts 96°
2026-05-04 03:44 30.73128 -98.28421 37158 ft 541 kts 96°
2026-05-04 03:45 30.71989 -98.19776 37149 ft 541 kts 97°
2026-05-04 03:45 30.70841 -98.11127 37136 ft 542 kts 97°
2026-05-04 03:46 30.69691 -98.02481 37100 ft 542 kts 97°
2026-05-04 03:46 30.68527 -97.93833 36762 ft 541 kts 97°
2026-05-04 03:46 30.67942 -97.89513 36502 ft 541 kts 97°
2026-05-04 03:47 30.67354 -97.85193 36257 ft 541 kts 97°
2026-05-04 03:47 30.66762 -97.80876 36015 ft 542 kts 97°
2026-05-04 03:47 30.66169 -97.76556 35773 ft 542 kts 97°
2026-05-04 03:47 30.65577 -97.72233 35530 ft 542 kts 97°
2026-05-04 03:48 30.64988 -97.67906 35290 ft 543 kts 97°
2026-05-04 03:48 30.64398 -97.63571 35052 ft 543 kts 97°
2026-05-04 03:48 30.63802 -97.59236 34820 ft 544 kts 97°
2026-05-04 03:48 30.63203 -97.54900 34584 ft 544 kts 97°
2026-05-04 03:49 30.62605 -97.50563 34349 ft 544 kts 98°
2026-05-04 03:49 30.62006 -97.46232 34093 ft 544 kts 98°
2026-05-04 03:49 30.61404 -97.41888 33137 ft 549 kts 98°
2026-05-04 03:49 30.60791 -97.37463 31969 ft 559 kts 98°
2026-05-04 03:50 30.60174 -97.33039 31427 ft 552 kts 98°
2026-05-04 03:50 30.59558 -97.28666 30524 ft 548 kts 98°
2026-05-04 03:50 30.58939 -97.24302 29336 ft 548 kts 98°
2026-05-04 03:50 30.58319 -97.19938 28078 ft 548 kts 98°
2026-05-04 03:51 30.57699 -97.15581 26843 ft 547 kts 98°
2026-05-04 03:51 30.57080 -97.11228 26059 ft 543 kts 98°
2026-05-04 03:51 30.56435 -97.06942 25945 ft 537 kts 102°
2026-05-04 03:51 30.55420 -97.02757 25785 ft 541 kts 106°
2026-05-04 03:52 30.54325 -96.98587 25032 ft 537 kts 106°
2026-05-04 03:52 30.53234 -96.94493 24497 ft 528 kts 107°
2026-05-04 03:52 30.52148 -96.90445 23871 ft 522 kts 107°
2026-05-04 03:52 30.51073 -96.86459 23270 ft 515 kts 107°
2026-05-04 03:53 30.50009 -96.82521 22736 ft 508 kts 107°
2026-05-04 03:53 30.48958 -96.78635 22185 ft 501 kts 107°
2026-05-04 03:53 30.47920 -96.74807 21644 ft 495 kts 107°
2026-05-04 03:53 30.46885 -96.71021 21109 ft 490 kts 107°
2026-05-04 03:54 30.45853 -96.67283 20580 ft 484 kts 107°
2026-05-04 03:54 30.44824 -96.63591 20053 ft 479 kts 108°
2026-05-04 03:54 30.43805 -96.59939 19535 ft 474 kts 108°
2026-05-04 03:54 30.42711 -96.56358 19005 ft 468 kts 114°
2026-05-04 03:55 30.41132 -96.53096 18448 ft 462 kts 126°
2026-05-04 03:55 30.39327 -96.50044 17901 ft 457 kts 126°
2026-05-04 03:55 30.37532 -96.47027 17259 ft 453 kts 126°
2026-05-04 03:55 30.35759 -96.44048 16783 ft 446 kts 126°
2026-05-04 03:56 30.34012 -96.41115 16262 ft 439 kts 126°
2026-05-04 03:56 30.32290 -96.38220 15762 ft 434 kts 126°
2026-05-04 03:56 30.30591 -96.35362 15281 ft 429 kts 126°
2026-05-04 03:56 30.28910 -96.32538 14805 ft 423 kts 126°
2026-05-04 03:57 30.27819 -96.30684 14598 ft 420 kts 126°
2026-05-04 03:57 30.26209 -96.27871 14354 ft 418 kts 124°
2026-05-04 03:57 30.24645 -96.25065 13997 ft 414 kts 124°
2026-05-04 03:57 30.23108 -96.22270 13547 ft 410 kts 124°
2026-05-04 03:58 30.20068 -96.16771 12627 ft 402 kts 124°
2026-05-04 03:58 30.18556 -96.14063 12164 ft 399 kts 124°
2026-05-04 03:58 30.17056 -96.11389 11661 ft 395 kts 124°
2026-05-04 03:59 30.15566 -96.08743 11200 ft 391 kts 124°
2026-05-04 03:59 30.14091 -96.06122 10746 ft 387 kts 124°
2026-05-04 03:59 30.12630 -96.03531 10283 ft 383 kts 124°
2026-05-04 03:59 30.11182 -96.00966 9949 ft 380 kts 124°
2026-05-04 04:00 30.09767 -95.98458 9849 ft 358 kts 124°
2026-05-04 04:00 30.08479 -95.96159 9888 ft 325 kts 124°
2026-05-04 04:00 30.07296 -95.94048 9900 ft 305 kts 125°
2026-05-04 04:00 30.06145 -95.92007 9852 ft 301 kts 125°
2026-05-04 04:01 30.05004 -95.89990 9728 ft 299 kts 125°
2026-05-04 04:01 30.03866 -95.87984 9618 ft 298 kts 125°
2026-05-04 04:01 30.02733 -95.85987 9481 ft 297 kts 124°
2026-05-04 04:01 30.01601 -95.83991 9369 ft 297 kts 125°
2026-05-04 04:02 30.00469 -95.81994 9091 ft 298 kts 124°
2026-05-04 04:02 29.99338 -95.79995 8655 ft 298 kts 124°
2026-05-04 04:02 29.98204 -95.77991 8225 ft 299 kts 124°
2026-05-04 04:02 29.97068 -95.75985 7820 ft 298 kts 124°
2026-05-04 04:03 29.95944 -95.73997 7391 ft 298 kts 124°
2026-05-04 04:03 29.94830 -95.72024 7017 ft 289 kts 124°
2026-05-04 04:03 29.93740 -95.70098 6459 ft 285 kts 124°
2026-05-04 04:03 29.92658 -95.68191 5982 ft 282 kts 124°
2026-05-04 04:04 29.91590 -95.66314 5549 ft 278 kts 124°
2026-05-04 04:04 29.90541 -95.64468 5126 ft 273 kts 124°
2026-05-04 04:04 29.89511 -95.62653 4727 ft 270 kts 124°
2026-05-04 04:04 29.88485 -95.60849 4305 ft 268 kts 124°
2026-05-04 04:05 29.87467 -95.59059 3899 ft 266 kts 123°
2026-05-04 04:05 29.86462 -95.57295 3623 ft 256 kts 123°
2026-05-04 04:05 29.85520 -95.55638 3556 ft 240 kts 124°
2026-05-04 04:05 29.84632 -95.54076 3466 ft 227 kts 124°
2026-05-04 04:06 29.83784 -95.52587 3374 ft 217 kts 124°
2026-05-04 04:06 29.82974 -95.51168 3275 ft 215 kts 124°
2026-05-04 04:06 29.82147 -95.49722 3181 ft 209 kts 124°
2026-05-04 04:06 29.81377 -95.48375 3095 ft 201 kts 124°
2026-05-04 04:07 29.80608 -95.47052 3033 ft 196 kts 128°
2026-05-04 04:07 29.79694 -95.45905 2920 ft 193 kts 135°
2026-05-04 04:07 29.78754 -95.44804 2794 ft 192 kts 135°
2026-05-04 04:07 29.77821 -95.43699 2694 ft 193 kts 135°
2026-05-04 04:08 29.76890 -95.42590 2590 ft 192 kts 135°
2026-05-04 04:08 29.75964 -95.41487 2490 ft 191 kts 135°
2026-05-04 04:08 29.75047 -95.40394 2383 ft 186 kts 135°
2026-05-04 04:08 29.74180 -95.39360 2306 ft 172 kts 135°
2026-05-04 04:09 29.73381 -95.38408 2222 ft 158 kts 135°
2026-05-04 04:09 29.72658 -95.37547 2164 ft 144 kts 136°
2026-05-04 04:09 29.71975 -95.36735 2017 ft 140 kts 136°
2026-05-04 04:09 29.71309 -95.35943 1853 ft 136 kts 135°
2026-05-04 04:10 29.70657 -95.35167 1684 ft 134 kts 136°
2026-05-04 04:10 29.70011 -95.34399 1503 ft 134 kts 136°
2026-05-04 04:10 29.69367 -95.33633 1331 ft 133 kts 136°
2026-05-04 04:10 29.68725 -95.32870 1146 ft 133 kts 136°
2026-05-04 04:11 29.68083 -95.32106 975 ft 133 kts 136°
2026-05-04 04:11 29.67437 -95.31340 819 ft 134 kts 135°
2026-05-04 04:11 29.66786 -95.30568 651 ft 134 kts 135°
2026-05-04 04:11 29.66139 -95.29796 454 ft 135 kts 135°
2026-05-04 04:12 29.65489 -95.29018 266 ft 135 kts 136°
2026-05-04 04:12 29.64840 -95.28248 80 ft 134 kts 136°
2026-05-04 04:12 29.64288 -95.27596 52 ft 77 kts 134°
2026-05-04 04:12 29.64051 -95.27315 49 ft 40 kts 134°
2026-05-04 04:13 29.63930 -95.27121 52 ft 26 kts 107°
2026-05-04 04:13 29.63921 -95.26967 52 ft 18 kts 89°
2026-05-04 04:13 29.63933 -95.26879 50 ft 8 kts 52°
2026-05-04 04:13 29.63990 -95.26865 52 ft 11 kts
2026-05-04 04:14 29.64072 -95.26862 52 ft 11 kts
2026-05-04 04:14 29.64145 -95.26870 52 ft 10 kts 332°
2026-05-04 04:14 29.64209 -95.26949 52 ft 15 kts 310°
2026-05-04 04:14 29.64272 -95.27035 50 ft 15 kts 310°
2026-05-04 04:15 29.64347 -95.27135 50 ft 16 kts 309°
2026-05-04 04:15 29.64400 -95.27242 52 ft 14 kts 298°
2026-05-04 04:15 29.64461 -95.27324 50 ft 13 kts 314°
2026-05-04 04:15 29.64531 -95.27407 50 ft 18 kts 313°
2026-05-04 04:16 29.64616 -95.27497 52 ft 15 kts 329°
2026-05-04 04:16 29.64712 -95.27514 52 ft 15 kts 359°
2026-05-04 04:16 29.64837 -95.27518 48 ft 20 kts 359°
2026-05-04 04:16 29.64970 -95.27520 52 ft 18 kts 359°
2026-05-04 04:17 29.65086 -95.27524 52 ft 14 kts 358°
2026-05-04 04:17 29.65147 -95.27484 52 ft 10 kts 77°
2026-05-04 04:17 29.65155 -95.27410 49 ft 11 kts 64°
2026-05-04 04:17 29.65206 -95.27347 50 ft 10 kts 44°
2026-05-04 04:18 29.65255 -95.27310 51 ft 7 kts 360°
2026-05-04 04:18 29.65266 -95.27316 52 ft 2 kts 329°
2026-05-04 04:18 29.65312 -95.27368 52 ft 11 kts 312°
2026-05-04 04:18 29.65333 -95.27424 52 ft 6 kts 259°
2026-05-04 04:19 29.65313 -95.27459 52 ft 4 kts 236°
2026-05-04 04:19 29.65307 -95.27470 49 ft 1 kts 236°